Regional Weather Roundup
Issued by NWS

Home | Current Version | Previous Version | Graphics & Text | Print | Product List | Glossary On
Versions: 1 2 3 4 5 6 7 8 9 10 11 12 13 14 15 16 17 18 19 20 21 22 23 24 25 26 27 28 29 30 31 32 33 34 35 36 37 38 39 40 41 42 43 44 45 46 47 48 49 50
000
ASUS45 KBOI 310710
RWRID

IDAHO REGIONAL WEATHER ROUNDUP
NATIONAL WEATHER SERVICE BOISE ID
100 AM MDT SUN JUL 31 2016

NOTE: "FAIR" INDICATES FEW OR NO CLOUDS BELOW 12000 FEET
WITH NO SIGNIFICANT WEATHER AND/OR OBSTRUCTIONS TO VISIBILITY

IDZ012-014-310800-
SOUTHWEST IDAHO


CITY           SKY/WX    TMP DP  RH WIND       PRES   REMARKS
BOISE          CLEAR     73  39  29 S3        29.79R
CALDWELL       CLEAR     71  47  42 SW6       29.78R
MOUNTAIN HOME  MOCLDY    80  46  30 W5        29.79S
$$

IDZ016-017-310800-
SOUTHCENTRAL IDAHO


CITY           SKY/WX    TMP DP  RH WIND       PRES   REMARKS
BURLEY         MOCLDY    73  49  42 SW14      29.88R
JEROME         PTCLDY    74  49  41 SE6       29.88S
TWIN FALLS     PTCLDY    75  45  34 S14       29.88S
$$

IDZ019>023-310800-
SOUTHEAST IDAHO


CITY           SKY/WX    TMP DP  RH WIND       PRES   REMARKS
IDAHO FALLS    CLOUDY    66  49  54 S9        29.92R
POCATELLO      CLOUDY    74  44  34 SW8       29.91R
REXBURG        CLOUDY    68  50  52 S10       29.91S
$$

IDZ006-010-011-018-031-032-310800-
CENTRAL IDAHO MOUNTAINS


CITY           SKY/WX    TMP DP  RH WIND       PRES   REMARKS
MCCALL         CLEAR     57  39  51 NE5       29.95S
HAILEY         PTCLDY    63  39  42 NW5       29.99S
STANLEY          N/A     51  33  50 SE5       30.07S
SALMON         CLEAR     68  37  32 CALM      29.82R
CHALLIS        CLEAR     67  27  22 E3        29.93R
$$

IDZ002-004-006-007-026-310800-
NORTHERN IDAHO


CITY           SKY/WX    TMP DP  RH WIND       PRES   REMARKS
LEWISTON       CLEAR     79  30  16 SW9       29.74R
LOWELL           N/A     63  50  62 CALM      29.78R
COEUR D`ALENE  CLEAR     66  37  34 MISG      29.69F
MULLAN PASS    CLEAR     61  31  32 SW8       29.94F
$$



USA.gov is the U.S. government's official web portal to all federal, state and local government web resources and services.